TimeBST,TemperatureF,Dew PointF,Humidity,Sea Level PressureIn,VisibilityMPH,Wind Direction,Wind SpeedMPH,Gust SpeedMPH,PrecipitationIn,Events,Conditions,WindDirDegrees,DateUTC
12:20 AM,48.2,46.4,93,29.65,6.2,NE,9.2,-,N/A,,Light Drizzle,50,2012-10-18 23:20:00
12:50 AM,48.2,46.4,93,29.65,6.2,ENE,9.2,-,N/A,Rain,Light Rain,60,2012-10-18 23:50:00
1:20 AM,48.2,46.4,93,29.68,5.0,East,6.9,-,N/A,Rain,Rain,80,2012-10-19 00:20:00
1:50 AM,48.2,46.4,93,29.68,5.0,ENE,10.4,-,N/A,Rain,Light Rain,70,2012-10-19 00:50:00
2:20 AM,48.2,46.4,93,29.68,5.0,ENE,8.1,-,N/A,Rain,Light Rain,70,2012-10-19 01:20:00
2:50 AM,48.2,44.6,87,29.68,6.2,ENE,9.2,-,N/A,Rain,Light Rain,70,2012-10-19 01:50:00
3:20 AM,46.4,44.6,93,29.68,6.2,ENE,9.2,-,N/A,Rain,Rain,70,2012-10-19 02:20:00
3:50 AM,46.4,44.6,93,29.68,6.2,ENE,9.2,-,N/A,Rain,Light Rain,60,2012-10-19 02:50:00
4:20 AM,46.4,44.6,93,29.68,5.6,ENE,9.2,-,N/A,,Mostly Cloudy,70,2012-10-19 03:20:00
4:50 AM,46.4,44.6,93,29.68,5.6,ENE,8.1,-,N/A,Rain,Light Rain,70,2012-10-19 03:50:00
5:20 AM,46.4,42.8,87,29.71,5.6,ENE,8.1,-,N/A,,Mostly Cloudy,70,2012-10-19 04:20:00
5:50 AM,46.4,44.6,93,29.71,6.2,East,9.2,-,N/A,,Mostly Cloudy,80,2012-10-19 04:50:00
6:20 AM,46.4,44.6,93,29.71,6.2,ENE,8.1,-,N/A,,Light Drizzle,70,2012-10-19 05:20:00
6:50 AM,46.4,44.6,93,29.71,6.2,ENE,8.1,-,N/A,,Light Drizzle,70,2012-10-19 05:50:00
7:20 AM,46.4,44.6,93,29.71,5.0,ENE,8.1,-,N/A,,Light Drizzle,70,2012-10-19 06:20:00
7:50 AM,46.4,44.6,93,29.74,6.2,ENE,4.6,-,N/A,,Light Drizzle,70,2012-10-19 06:50:00
8:20 AM,46.4,44.6,93,29.74,4.3,ENE,5.8,-,N/A,Rain,Light Rain,70,2012-10-19 07:20:00
8:50 AM,46.4,44.6,93,29.74,6.2,ENE,6.9,-,N/A,Rain,Light Rain,60,2012-10-19 07:50:00
9:20 AM,46.4,44.6,93,29.74,6.2,ENE,5.8,-,N/A,Rain,Light Rain,70,2012-10-19 08:20:00
9:50 AM,46.4,44.6,93,29.77,5.6,ENE,5.8,-,N/A,Rain,Light Rain,70,2012-10-19 08:50:00
10:20 AM,46.4,44.6,93,29.77,6.2,ENE,8.1,-,N/A,Rain,Light Rain,70,2012-10-19 09:20:00
10:50 AM,48.2,44.6,87,29.77,6.2,ENE,6.9,-,N/A,Rain,Light Rain,70,2012-10-19 09:50:00
11:20 AM,48.2,46.4,93,29.77,4.3,ENE,8.1,-,N/A,Rain,Light Rain,70,2012-10-19 10:20:00
11:50 AM,48.2,46.4,93,29.77,4.3,ENE,8.1,-,N/A,Rain,Light Rain,70,2012-10-19 10:50:00
12:20 PM,48.2,48.2,100,29.77,6.2,ENE,9.2,-,N/A,,Light Drizzle,70,2012-10-19 11:20:00
12:50 PM,50.0,48.2,94,29.77,6.2,East,10.4,-,N/A,,Mostly Cloudy,80,2012-10-19 11:50:00
1:20 PM,50.0,48.2,94,29.77,6.2,East,11.5,-,N/A,,Mostly Cloudy,80,2012-10-19 12:20:00
1:50 PM,50.0,48.2,94,29.77,6.2,East,11.5,-,N/A,,Mostly Cloudy,80,2012-10-19 12:50:00
2:20 PM,50.0,48.2,94,29.74,6.2,ENE,11.5,-,N/A,,Mostly Cloudy,70,2012-10-19 13:20:00
2:50 PM,50.0,48.2,94,29.74,6.2,East,11.5,-,N/A,,Mostly Cloudy,80,2012-10-19 13:50:00
3:20 PM,50.0,48.2,94,29.74,6.2,ENE,10.4,-,N/A,,Mostly Cloudy,70,2012-10-19 14:20:00
3:50 PM,50.0,48.2,94,29.74,6.2,East,11.5,-,N/A,,Mostly Cloudy,80,2012-10-19 14:50:00
4:20 PM,50.0,48.2,94,29.74,6.2,East,11.5,-,N/A,,Overcast,80,2012-10-19 15:20:00
4:50 PM,50.0,48.2,94,29.74,5.6,East,9.2,-,N/A,Rain,Light Rain,80,2012-10-19 15:50:00
5:20 PM,50.0,48.2,94,29.74,6.2,East,8.1,-,N/A,Rain,Light Rain,80,2012-10-19 16:20:00
5:50 PM,50.0,48.2,94,29.74,6.2,ENE,6.9,-,N/A,,Overcast,70,2012-10-19 16:50:00
6:20 PM,50.0,48.2,94,29.77,6.2,ENE,8.1,-,N/A,,Overcast,70,2012-10-19 17:20:00
6:50 PM,50.0,48.2,94,29.77,6.2,East,6.9,-,N/A,,Overcast,80,2012-10-19 17:50:00
7:20 PM,50.0,48.2,94,29.77,6.2,East,8.1,-,N/A,,Overcast,80,2012-10-19 18:20:00
7:50 PM,50.0,48.2,94,29.77,6.2,East,6.9,-,N/A,Rain,Light Rain,80,2012-10-19 18:50:00
8:20 PM,50.0,48.2,94,29.77,4.3,East,5.8,-,N/A,Rain,Light Rain,90,2012-10-19 19:20:00
8:50 PM,48.2,48.2,100,29.77,4.3,ENE,6.9,-,N/A,Rain,Light Rain,70,2012-10-19 19:50:00
9:20 PM,50.0,48.2,94,29.77,6.2,Variable,3.5,-,N/A,,Overcast,0,2012-10-19 20:20:00
9:50 PM,48.2,48.2,100,29.77,3.7,Variable,3.5,-,N/A,,Overcast,0,2012-10-19 20:50:00
10:20 PM,48.2,48.2,100,29.77,3.7,NNE,2.3,-,N/A,,Light Drizzle,30,2012-10-19 21:20:00
10:50 PM,48.2,46.4,93,29.77,3.1,NNE,2.3,-,N/A,Rain,Light Rain,30,2012-10-19 21:50:00
11:20 PM,48.2,46.4,93,29.77,2.5,NE,6.9,-,N/A,,Light Drizzle,40,2012-10-19 22:20:00
11:50 PM,48.2,46.4,93,29.77,3.1,ENE,2.3,-,N/A,,Mostly Cloudy,70,2012-10-19 22:50:00